Location: *
(43.4667°N, 11.6833°E)
Time: 22:52:12
(UTC+00:00)

Cosmos 1980 - Pass Details

Date: 19 July 2019
Orbit: 839 x 847 km, 71.0° (Epoch: 23 August)

Event Time Altitude Azimuth Distance (km) Brightness Sun altitude
Exits shadow 22:27:12 49° 222° (SW) 1,088 4.0 -24.7°
Maximum altitude 22:28:47 76° 296° (WNW) 875 3.7 -24.7°
Drops below altitude 10° 22:34:30 10° 22° (NNE) 2,480 6.9 -24.9°
Sets 22:36:58 0° 24° (NNE) 3,419 7.7 -25.0°
